Location: Aldenham
(51.6667°N, 0.3500°W)
Time: 07:31:42
(UTC+00:00)

SL-12 R/B(2) - Pass Details

Date: 18 November 2025
Orbit: 1173 x 2175 km, 63.4° (Epoch: 13 December)

Event Time Altitude Azimuth Distance (km) Brightness Sun altitude
Rises 17:15:57 0° 203° (SSW) 4,186 7.5 -10.5°
Reaches altitude 10° 17:18:34 10° 199° (SSW) 3,298 6.8 -10.9°
Maximum altitude 17:26:21 60° 122° (ESE) 1,648 4.5 -12.1°
Enters shadow 17:35:45 11° 47° (NE) 3,951 6.1 -13.5°
